QPF
0.00 0.00 0.00 0.00 0.00 0.00 0.00 0.01 0.02 0.01 0.01 0.02 0.02 0.02 0.02 0.03 0.03 0.04 0.04 0.05 0.04 0.04 0.05 0.05 0.05 0.05 0.05 0.07 0.08 0.07 0.05 0.07 0.11 0.09 0.10 0.12 0.13 0.11 0.09 0.07 0.06 0.04 0.04
0.00 0.00 0.00 0.00 0.00 0.01 0.01 0.01 0.01 0.02 0.02 0.02 0.02 0.02 0.02 0.03 0.04 0.05 0.05 0.05 0.05 0.05 0.05 0.05 0.05 0.05 0.06 0.07 0.07 0.06 0.06 0.08 0.13 0.11 0.09 0.08 0.08 0.09 0.09 0.08 0.07 0.05 0.04
0.00 0.01 0.01 0.00 0.00 0.01 0.01 0.01 0.01 0.02 0.02 0.01 0.02 0.02 0.02 0.03 0.04 0.04 0.04 0.05 0.05 0.05 0.05 0.07 0.07 0.07 0.07 0.07 0.06 0.06 0.05 0.08 0.14 0.13 0.10 0.09 0.06 0.08 0.11 0.10 0.08 0.05 0.04
0.00 0.02 0.01 0.00 0.00 0.01 0.01 0.01 0.01 0.03 0.03 0.01 0.02 0.03 0.03 0.04 0.03 0.03 0.04 0.04 0.05 0.05 0.06 0.07 0.07 0.08 0.07 0.07 0.07 0.07 0.07 0.12 0.15 0.13 0.11 0.10 0.09 0.08 0.09 0.10 0.09 0.07 0.04
0.01 0.02 0.01 0.00 0.00 0.01 0.01 0.00 0.01 0.01 0.02 0.03 0.03 0.05 0.08 0.05 0.04 0.03 0.04 0.05 0.05 0.05 0.05 0.07 0.08 0.08 0.06 0.06 0.07 0.07 0.10 0.14 0.14 0.09 0.09 0.10 0.10 0.08 0.08 0.08 0.08 0.08 0.07
0.01 0.01 0.01 0.00 0.00 0.00 0.00 0.01 0.01 0.02 0.03 0.05 0.06 0.07 0.12 0.11 0.07 0.05 0.05 0.05 0.05 0.05 0.05 0.07 0.07 0.08 0.08 0.08 0.09 0.08 0.10 0.13 0.08 0.08 0.10 0.10 0.09 0.07 0.07 0.05 0.06 0.09 0.09
0.01 0.01 0.01 0.00 0.00 0.00 0.01 0.01 0.02 0.03 0.03 0.05 0.06 0.06 0.07 0.12 0.12 0.09 0.07 0.07 0.07 0.06 0.07 0.09 0.08 0.07 0.07 0.11 0.12 0.10 0.12 0.12 0.07 0.07 0.10 0.13 0.09 0.07 0.06 0.04 0.05 0.07 0.08
0.01 0.01 0.01 0.01 0.01 0.01 0.02 0.01 0.02 0.04 0.05 0.05 0.05 0.05 0.05 0.09 0.14 0.12 0.10 0.09 0.09 0.08 0.08 0.10 0.09 0.07 0.07 0.11 0.13 0.13 0.11 0.09 0.06 0.08 0.12 0.13 0.12 0.07 0.05 0.04 0.03 0.05 0.08
0.00 0.01 0.02 0.01 0.02 0.02 0.02 0.02 0.02 0.04 0.05 0.05 0.05 0.04 0.05 0.10 0.15 0.15 0.10 0.09 0.10 0.10 0.09 0.09 0.09 0.09 0.09 0.12 0.16 0.15 0.09 0.07 0.06 0.09 0.17 0.17 0.13 0.08 0.05 0.03 0.02 0.03 0.06
0.01 0.02 0.03 0.03 0.03 0.04 0.04 0.02 0.02 0.05 0.04 0.06 0.07 0.08 0.08 0.10 0.14 0.12 0.11 0.08 0.10 0.12 0.12 0.15 0.13 0.14 0.14 0.16 0.19 0.17 0.10 0.06 0.05 0.07 0.14 0.19 0.16 0.14 0.08 0.05 0.04 0.04 0.05
0.06 0.04 0.03 0.04 0.04 0.05 0.06 0.03 0.03 0.05 0.06 0.08 0.09 0.10 0.10 0.10 0.15 0.14 0.13 0.11 0.10 0.15 0.18 0.23 0.21 0.18 0.20 0.20 0.16 0.13 0.09 0.05 0.06 0.06 0.07 0.15 0.21 0.17 0.11 0.08 0.06 0.05 0.05
0.13 0.10 0.03 0.03 0.03 0.05 0.06 0.06 0.07 0.07 0.06 0.08 0.09 0.08 0.09 0.11 0.15 0.16 0.15 0.11 0.09 0.12 0.15 0.17 0.16 0.15 0.15 0.12 0.11 0.10 0.07 0.07 0.07 0.06 0.05 0.08 0.09 0.09 0.08 0.08 0.06 0.06 0.06
0.14 0.15 0.06 0.04 0.03 0.04 0.06 0.08 0.09 0.09 0.08 0.09 0.11 0.11 0.12 0.12 0.13 0.16 0.15 0.14 0.12 0.11 0.11 0.11 0.12 0.09 0.08 0.07 0.08 0.09 0.08 0.08 0.07 0.08 0.05 0.07 0.07 0.06 0.07 0.08 0.09 0.07 0.06
0.10 0.11 0.05 0.02 0.03 0.05 0.06 0.06 0.06 0.06 0.06 0.08 0.09 0.09 0.10 0.11 0.11 0.14 0.11 0.11 0.11 0.10 0.10 0.10 0.11 0.10 0.08 0.06 0.07 0.07 0.08 0.10 0.08 0.08 0.07 0.05 0.05 0.06 0.06 0.07 0.11 0.09 0.08
0.11 0.12 0.06 0.03 0.04 0.05 0.07 0.07 0.07 0.06 0.06 0.08 0.10 0.10 0.09 0.10 0.11 0.15 0.13 0.09 0.08 0.09 0.08 0.09 0.11 0.11 0.11 0.11 0.10 0.06 0.06 0.12 0.14 0.09 0.09 0.07 0.04 0.04 0.05 0.06 0.10 0.11 0.08
0.12 0.12 0.05 0.03 0.04 0.06 0.08 0.09 0.14 0.09 0.07 0.10 0.09 0.07 0.08 0.07 0.09 0.13 0.11 0.08 0.08 0.09 0.08 0.09 0.09 0.09 0.11 0.12 0.11 0.09 0.07 0.08 0.13 0.10 0.09 0.08 0.05 0.05 0.05 0.06 0.09 0.09 0.08
0.07 0.06 0.03 0.02 0.03 0.05 0.08 0.06 0.12 0.15 0.08 0.08 0.09 0.05 0.05 0.05 0.07 0.09 0.08 0.07 0.09 0.08 0.07 0.08 0.10 0.10 0.10 0.10 0.10 0.09 0.08 0.08 0.08 0.07 0.05 0.06 0.07 0.07 0.06 0.07 0.07 0.06 0.07
0.06 0.06 0.04 0.02 0.02 0.03 0.03 0.05 0.06 0.09 0.06 0.07 0.06 0.06 0.05 0.05 0.06 0.07 0.06 0.07 0.09 0.08 0.08 0.08 0.10 0.12 0.12 0.12 0.11 0.09 0.07 0.07 0.06 0.04 0.03 0.04 0.06 0.07 0.06 0.06 0.09 0.09 0.07
0.05 0.06 0.05 0.05 0.04 0.04 0.04 0.05 0.05 0.05 0.06 0.06 0.06 0.07 0.06 0.05 0.05 0.05 0.06 0.08 0.08 0.07 0.08 0.07 0.09 0.11 0.12 0.12 0.10 0.09 0.08 0.08 0.06 0.04 0.04 0.04 0.05 0.06 0.05 0.05 0.07 0.09 0.09
0.05 0.05 0.05 0.05 0.05 0.05 0.05 0.05 0.05 0.05 0.06 0.06 0.06 0.07 0.05 0.04 0.04 0.06 0.06 0.08 0.07 0.07 0.08 0.09 0.11 0.12 0.13 0.13 0.11 0.10 0.08 0.06 0.06 0.05 0.04 0.04 0.04 0.05 0.05 0.05 0.04 0.05 0.04
0.04 0.04 0.04 0.04 0.04 0.05 0.05 0.05 0.04 0.05 0.05 0.05 0.04 0.04 0.04 0.04 0.04 0.07 0.07 0.07 0.06 0.06 0.07 0.09 0.12 0.13 0.12 0.12 0.10 0.09 0.07 0.06 0.06 0.04 0.03 0.03 0.02 0.03 0.04 0.06 0.05 0.05 0.04
0.04 0.04 0.03 0.04 0.04 0.06 0.07 0.07 0.06 0.05 0.04 0.05 0.05 0.04 0.04 0.04 0.04 0.05 0.06 0.06 0.06 0.06 0.06 0.08 0.11 0.11 0.10 0.08 0.08 0.08 0.07 0.08 0.07 0.05 0.03 0.02 0.02 0.03 0.03 0.04 0.05 0.05 0.05
0.04 0.04 0.04 0.06 0.06 0.07 0.07 0.06 0.07 0.06 0.06 0.06 0.06 0.05 0.05 0.04 0.04 0.05 0.05 0.06 0.07 0.06 0.06 0.08 0.09 0.09 0.09 0.07 0.07 0.08 0.08 0.07 0.07 0.06 0.04 0.03 0.04 0.03 0.03 0.02 0.03 0.04 0.04
0.03 0.04 0.05 0.07 0.09 0.09 0.07 0.07 0.07 0.07 0.07 0.07 0.06 0.05 0.05 0.05 0.04 0.04 0.05 0.06 0.07 0.08 0.08 0.07 0.07 0.08 0.09 0.08 0.08 0.07 0.06 0.07 0.07 0.06 0.05 0.03 0.03 0.03 0.03 0.02 0.02 0.03 0.04
0.02 0.05 0.08 0.08 0.09 0.09 0.07 0.09 0.09 0.08 0.07 0.07 0.06 0.05 0.06 0.05 0.04 0.03 0.05 0.07 0.08 0.09 0.09 0.08 0.08 0.08 0.08 0.09 0.10 0.09 0.08 0.07 0.07 0.07 0.07 0.06 0.06 0.04 0.02 0.01 0.02 0.03 0.04
0.04 0.05 0.07 0.08 0.08 0.11 0.10 0.08 0.09 0.08 0.08 0.07 0.06 0.06 0.05 0.05 0.05 0.05 0.05 0.06 0.07 0.08 0.09 0.09 0.09 0.08 0.09 0.09 0.10 0.10 0.09 0.09 0.09 0.09 0.08 0.06 0.06 0.04 0.03 0.02 0.02 0.02 0.03
MSLP
1008.52 1008.36 1008.40 1008.64 1009.01 1009.42 1009.76 1009.98 1010.03 1009.95 1009.81 1009.68 1009.63 1009.71 1009.92 1010.21 1010.53 1010.84 1011.09 1011.28 1011.44 1011.60 1011.81 1012.07 1012.40 1012.76 1013.13 1013.45 1013.69 1013.85 1013.94 1013.99 1014.04 1014.11 1014.23 1014.39 1014.59 1014.80 1015.01 1015.21 1015.40 1015.59 1015.80
1008.50 1008.46 1008.59 1008.90 1009.31 1009.73 1010.05 1010.20 1010.19 1010.04 1009.84 1009.68 1009.65 1009.77 1010.05 1010.42 1010.83 1011.19 1011.48 1011.67 1011.80 1011.91 1012.05 1012.26 1012.54 1012.87 1013.22 1013.53 1013.77 1013.93 1014.02 1014.05 1014.08 1014.14 1014.24 1014.40 1014.60 1014.83 1015.07 1015.30 1015.52 1015.75 1015.99
1008.39 1008.46 1008.69 1009.07 1009.53 1009.97 1010.28 1010.41 1010.36 1010.17 1009.93 1009.76 1009.73 1009.88 1010.18 1010.59 1011.03 1011.42 1011.71 1011.88 1011.98 1012.06 1012.16 1012.34 1012.59 1012.92 1013.26 1013.58 1013.83 1013.99 1014.07 1014.10 1014.12 1014.15 1014.24 1014.39 1014.58 1014.82 1015.07 1015.33 1015.59 1015.86 1016.14
1008.18 1008.35 1008.66 1009.12 1009.65 1010.12 1010.47 1010.61 1010.56 1010.36 1010.12 1009.94 1009.91 1010.05 1010.35 1010.76 1011.18 1011.55 1011.81 1011.96 1012.03 1012.08 1012.17 1012.34 1012.59 1012.92 1013.28 1013.60 1013.86 1014.03 1014.11 1014.12 1014.12 1014.13 1014.20 1014.32 1014.51 1014.74 1015.01 1015.29 1015.59 1015.89 1016.21
1007.93 1008.16 1008.55 1009.08 1009.67 1010.21 1010.60 1010.79 1010.77 1010.60 1010.38 1010.20 1010.16 1010.28 1010.55 1010.92 1011.29 1011.62 1011.84 1011.95 1012.00 1012.04 1012.13 1012.30 1012.57 1012.91 1013.28 1013.62 1013.88 1014.03 1014.10 1014.09 1014.06 1014.05 1014.09 1014.19 1014.35 1014.58 1014.84 1015.14 1015.47 1015.81 1016.18
1007.69 1007.96 1008.40 1008.98 1009.63 1010.22 1010.67 1010.92 1010.95 1010.83 1010.64 1010.49 1010.44 1010.54 1010.77 1011.08 1011.40 1011.66 1011.83 1011.92 1011.95 1011.99 1012.09 1012.27 1012.56 1012.91 1013.28 1013.61 1013.85 1013.99 1014.02 1013.99 1013.93 1013.88 1013.89 1013.96 1014.10 1014.30 1014.56 1014.86 1015.21 1015.59 1016.01
1007.52 1007.80 1008.27 1008.88 1009.55 1010.18 1010.67 1010.97 1011.06 1010.99 1010.84 1010.72 1010.68 1010.76 1010.96 1011.21 1011.48 1011.69 1011.82 1011.88 1011.91 1011.95 1012.06 1012.26 1012.55 1012.90 1013.25 1013.55 1013.76 1013.86 1013.86 1013.79 1013.69 1013.61 1013.58 1013.62 1013.73 1013.92 1014.16 1014.46 1014.82 1015.23 1015.68
1007.49 1007.76 1008.22 1008.82 1009.49 1010.12 1010.62 1010.93 1011.05 1011.03 1010.93 1010.84 1010.82 1010.90 1011.08 1011.30 1011.53 1011.71 1011.81 1011.86 1011.89 1011.94 1012.05 1012.26 1012.54 1012.87 1013.18 1013.44 1013.60 1013.65 1013.60 1013.49 1013.35 1013.24 1013.18 1013.20 1013.28 1013.44 1013.66 1013.94 1014.30 1014.72 1015.21
1007.63 1007.89 1008.32 1008.88 1009.49 1010.07 1010.53 1010.83 1010.95 1010.94 1010.88 1010.83 1010.84 1010.94 1011.12 1011.34 1011.55 1011.71 1011.80 1011.85 1011.88 1011.93 1012.05 1012.24 1012.50 1012.78 1013.05 1013.25 1013.35 1013.34 1013.25 1013.10 1012.94 1012.81 1012.73 1012.72 1012.78 1012.91 1013.10 1013.36 1013.70 1014.12 1014.62
1007.96 1008.21 1008.59 1009.09 1009.61 1010.10 1010.48 1010.71 1010.80 1010.79 1010.74 1010.72 1010.78 1010.91 1011.11 1011.34 1011.54 1011.70 1011.80 1011.84 1011.87 1011.92 1012.03 1012.20 1012.41 1012.65 1012.86 1012.99 1013.03 1012.98 1012.85 1012.68 1012.51 1012.37 1012.28 1012.25 1012.29 1012.39 1012.54 1012.77 1013.07 1013.47 1013.97
1008.43 1008.69 1009.03 1009.45 1009.87 1010.23 1010.50 1010.64 1010.67 1010.64 1010.60 1010.61 1010.69 1010.86 1011.09 1011.33 1011.55 1011.71 1011.80 1011.85 1011.87 1011.91 1011.99 1012.13 1012.30 1012.48 1012.63 1012.71 1012.70 1012.61 1012.46 1012.27 1012.10 1011.95 1011.86 1011.83 1011.85 1011.91 1012.03 1012.21 1012.47 1012.84 1013.31
1009.00 1009.28 1009.60 1009.94 1010.26 1010.50 1010.64 1010.67 1010.64 1010.57 1010.53 1010.56 1010.68 1010.88 1011.13 1011.38 1011.61 1011.76 1011.85 1011.88 1011.89 1011.91 1011.97 1012.06 1012.19 1012.31 1012.41 1012.44 1012.39 1012.28 1012.11 1011.93 1011.75 1011.61 1011.52 1011.48 1011.48 1011.51 1011.59 1011.72 1011.93 1012.25 1012.67
1009.57 1009.90 1010.22 1010.51 1010.73 1010.86 1010.90 1010.85 1010.75 1010.66 1010.62 1010.67 1010.80 1011.02 1011.28 1011.54 1011.75 1011.90 1011.97 1011.98 1011.97 1011.96 1011.98 1012.04 1012.12 1012.19 1012.24 1012.23 1012.15 1012.02 1011.85 1011.66 1011.49 1011.35 1011.26 1011.20 1011.18 1011.18 1011.21 1011.29 1011.45 1011.71 1012.09
1010.08 1010.47 1010.80 1011.06 1011.22 1011.28 1011.24 1011.14 1011.02 1010.92 1010.89 1010.95 1011.11 1011.33 1011.58 1011.82 1012.01 1012.13 1012.17 1012.15 1012.11 1012.08 1012.07 1012.09 1012.13 1012.16 1012.17 1012.12 1012.01 1011.86 1011.67 1011.48 1011.30 1011.16 1011.05 1010.97 1010.92 1010.88 1010.88 1010.91 1011.01 1011.21 1011.53
1010.46 1010.91 1011.26 1011.51 1011.64 1011.67 1011.61 1011.50 1011.39 1011.32 1011.32 1011.40 1011.56 1011.78 1012.01 1012.22 1012.36 1012.44 1012.45 1012.40 1012.34 1012.29 1012.25 1012.24 1012.24 1012.23 1012.20 1012.11 1011.97 1011.79 1011.58 1011.36 1011.16 1010.99 1010.86 1010.75 1010.66 1010.59 1010.54 1010.52 1010.58 1010.72 1010.97
1010.68 1011.17 1011.54 1011.79 1011.92 1011.96 1011.93 1011.86 1011.80 1011.78 1011.83 1011.94 1012.11 1012.31 1012.50 1012.66 1012.76 1012.80 1012.77 1012.71 1012.63 1012.56 1012.51 1012.48 1012.45 1012.40 1012.32 1012.19 1012.00 1011.78 1011.53 1011.28 1011.04 1010.83 1010.65 1010.50 1010.37 1010.25 1010.16 1010.10 1010.10 1010.19 1010.39
1010.76 1011.26 1011.63 1011.88 1012.03 1012.11 1012.13 1012.14 1012.17 1012.23 1012.34 1012.49 1012.66 1012.83 1012.98 1013.09 1013.14 1013.14 1013.09 1013.02 1012.94 1012.88 1012.82 1012.77 1012.72 1012.63 1012.50 1012.32 1012.09 1011.81 1011.51 1011.21 1010.92 1010.66 1010.43 1010.22 1010.04 1009.87 1009.73 1009.63 1009.58 1009.62 1009.76
1010.75 1011.22 1011.57 1011.82 1011.99 1012.11 1012.21 1012.32 1012.44 1012.60 1012.77 1012.95 1013.12 1013.27 1013.38 1013.43 1013.44 1013.41 1013.36 1013.30 1013.24 1013.19 1013.14 1013.09 1013.01 1012.89 1012.71 1012.48 1012.19 1011.86 1011.51 1011.16 1010.82 1010.50 1010.21 1009.95 1009.70 1009.47 1009.27 1009.12 1009.02 1009.00 1009.08
1010.71 1011.13 1011.43 1011.66 1011.84 1012.00 1012.18 1012.38 1012.61 1012.84 1013.07 1013.28 1013.45 1013.57 1013.63 1013.65 1013.63 1013.59 1013.54 1013.50 1013.47 1013.45 1013.42 1013.37 1013.28 1013.13 1012.91 1012.63 1012.30 1011.93 1011.54 1011.15 1010.77 1010.40 1010.05 1009.72 1009.41 1009.11 1008.84 1008.61 1008.45 1008.37 1008.39
1010.68 1011.03 1011.29 1011.48 1011.66 1011.86 1012.09 1012.38 1012.68 1012.98 1013.26 1013.49 1013.64 1013.73 1013.75 1013.74 1013.70 1013.66 1013.63 1013.63 1013.64 1013.66 1013.65 1013.61 1013.50 1013.33 1013.09 1012.78 1012.42 1012.03 1011.62 1011.21 1010.81 1010.40 1010.01 1009.61 1009.22 1008.84 1008.48 1008.17 1007.93 1007.77 1007.72
1010.66 1010.97 1011.17 1011.34 1011.51 1011.73 1012.02 1012.35 1012.71 1013.06 1013.36 1013.58 1013.72 1013.78 1013.77 1013.73 1013.68 1013.65 1013.65 1013.69 1013.74 1013.79 1013.81 1013.78 1013.67 1013.49 1013.23 1012.92 1012.56 1012.18 1011.78 1011.38 1010.97 1010.55 1010.11 1009.65 1009.18 1008.70 1008.24 1007.82 1007.48 1007.24 1007.10
1010.63 1010.92 1011.11 1011.26 1011.44 1011.67 1011.98 1012.35 1012.74 1013.11 1013.41 1013.63 1013.74 1013.77 1013.73 1013.68 1013.63 1013.61 1013.64 1013.71 1013.80 1013.88 1013.91 1013.88 1013.78 1013.59 1013.34 1013.05 1012.72 1012.37 1012.02 1011.65 1011.26 1010.84 1010.37 1009.85 1009.29 1008.70 1008.13 1007.59 1007.14 1006.79 1006.58
1010.52 1010.84 1011.06 1011.23 1011.42 1011.68 1012.01 1012.39 1012.79 1013.16 1013.46 1013.65 1013.74 1013.75 1013.70 1013.63 1013.59 1013.59 1013.64 1013.73 1013.84 1013.93 1013.97 1013.94 1013.84 1013.66 1013.43 1013.17 1012.89 1012.60 1012.31 1012.00 1011.65 1011.23 1010.74 1010.16 1009.51 1008.82 1008.12 1007.47 1006.90 1006.45 1006.15
1010.25 1010.67 1010.96 1011.19 1011.43 1011.72 1012.06 1012.46 1012.85 1013.22 1013.50 1013.67 1013.75 1013.74 1013.69 1013.62 1013.58 1013.60 1013.67 1013.77 1013.88 1013.97 1014.00 1013.96 1013.85 1013.69 1013.48 1013.26 1013.04 1012.82 1012.60 1012.35 1012.05 1011.64 1011.13 1010.50 1009.78 1008.98 1008.17 1007.41 1006.74 1006.20 1005.83
1009.80 1010.35 1010.76 1011.08 1011.39 1011.72 1012.09 1012.49 1012.89 1013.24 1013.51 1013.68 1013.75 1013.75 1013.70 1013.65 1013.62 1013.65 1013.72 1013.82 1013.91 1013.98 1013.99 1013.94 1013.82 1013.66 1013.48 1013.30 1013.14 1012.99 1012.83 1012.64 1012.37 1011.98 1011.45 1010.78 1010.00 1009.13 1008.23 1007.38 1006.63 1006.03 1005.61
1009.15 1009.86 1010.41 1010.85 1011.25 1011.64 1012.05 1012.46 1012.85 1013.20 1013.47 1013.64 1013.72 1013.73 1013.71 1013.68 1013.67 1013.70 1013.77 1013.86 1013.93 1013.97 1013.96 1013.88 1013.75 1013.59 1013.42 1013.27 1013.15 1013.05 1012.94 1012.79 1012.55 1012.17 1011.63 1010.94 1010.11 1009.20 1008.26 1007.36 1006.58 1005.95 1005.51
Thickness
5822 5817 5810 5806 5803 5800 5797 5794 5792 5791 5789 5788 5786 5785 5783 5782 5780 5779 5778 5776 5775 5774 5772 5772 5771 5770 5769 5769 5768 5767 5767 5765 5765 5764 5763 5761 5760 5760 5759 5758 5758 5756 5754
5824 5815 5809 5804 5801 5798 5795 5792 5790 5788 5786 5785 5784 5782 5781 5779 5778 5776 5775 5774 5772 5771 5770 5769 5768 5767 5767 5766 5765 5765 5764 5763 5762 5762 5761 5760 5759 5758 5757 5756 5756 5754 5752
5822 5813 5807 5802 5798 5795 5792 5790 5787 5785 5784 5782 5781 5779 5777 5776 5775 5773 5772 5771 5770 5769 5767 5767 5766 5765 5764 5763 5763 5762 5762 5762 5761 5761 5760 5760 5758 5756 5755 5754 5753 5752 5750
5821 5812 5806 5799 5796 5792 5789 5786 5785 5783 5781 5779 5778 5776 5774 5773 5772 5771 5770 5768 5767 5766 5765 5764 5763 5762 5761 5761 5761 5760 5760 5760 5760 5760 5760 5759 5758 5755 5754 5753 5751 5750 5748
5819 5811 5803 5797 5793 5790 5786 5784 5782 5780 5778 5776 5775 5773 5772 5771 5769 5768 5767 5766 5765 5764 5763 5762 5761 5760 5759 5759 5759 5758 5758 5759 5759 5759 5759 5758 5756 5753 5752 5751 5749 5748 5746
5816 5810 5800 5795 5791 5788 5784 5781 5779 5777 5775 5774 5772 5771 5769 5768 5767 5765 5764 5763 5763 5762 5761 5760 5759 5758 5757 5757 5757 5756 5757 5757 5757 5759 5758 5756 5754 5751 5750 5749 5748 5746 5745
5815 5808 5799 5793 5789 5785 5782 5779 5777 5775 5773 5771 5769 5768 5766 5765 5764 5762 5761 5760 5760 5760 5758 5757 5757 5756 5755 5755 5755 5755 5755 5755 5756 5758 5757 5754 5752 5750 5749 5748 5746 5745 5743
5814 5806 5796 5790 5786 5783 5780 5777 5775 5772 5770 5769 5767 5765 5764 5762 5761 5760 5759 5758 5757 5757 5756 5755 5755 5754 5754 5754 5754 5753 5754 5753 5756 5756 5754 5752 5748 5747 5747 5746 5744 5743 5741
5814 5805 5796 5789 5784 5780 5778 5775 5772 5770 5768 5766 5764 5763 5762 5761 5760 5758 5757 5756 5755 5755 5754 5753 5753 5752 5752 5752 5752 5752 5752 5752 5753 5755 5753 5749 5747 5745 5744 5743 5742 5740 5739
5809 5803 5796 5790 5785 5780 5777 5774 5771 5768 5766 5764 5762 5760 5759 5758 5758 5757 5755 5754 5753 5752 5752 5751 5751 5750 5749 5750 5750 5751 5751 5751 5752 5752 5751 5747 5744 5742 5741 5740 5739 5738 5737
5802 5799 5796 5791 5786 5782 5778 5773 5769 5766 5764 5762 5760 5758 5756 5756 5756 5755 5754 5752 5751 5750 5750 5750 5749 5749 5748 5749 5750 5749 5749 5750 5751 5751 5749 5746 5743 5740 5739 5738 5737 5735 5735
5796 5796 5795 5790 5785 5782 5778 5772 5769 5766 5762 5761 5759 5757 5755 5755 5754 5754 5752 5750 5749 5749 5748 5748 5747 5747 5747 5748 5748 5748 5748 5749 5749 5747 5745 5744 5742 5740 5738 5736 5735 5733 5733
5795 5793 5792 5788 5784 5780 5776 5771 5769 5766 5762 5760 5758 5755 5753 5753 5752 5751 5750 5748 5747 5747 5747 5747 5746 5746 5747 5748 5748 5748 5748 5748 5747 5745 5743 5742 5741 5738 5736 5734 5732 5732 5731
5792 5790 5789 5786 5781 5777 5774 5771 5768 5764 5761 5759 5755 5753 5750 5750 5749 5749 5749 5747 5747 5747 5746 5746 5745 5745 5746 5747 5747 5747 5745 5745 5745 5743 5740 5739 5738 5736 5734 5732 5731 5729 5729
5790 5787 5785 5782 5778 5774 5770 5768 5766 5763 5760 5757 5753 5751 5749 5748 5746 5747 5746 5746 5746 5746 5745 5743 5743 5743 5743 5744 5744 5744 5743 5744 5743 5740 5737 5736 5735 5733 5732 5731 5729 5728 5726
5787 5784 5782 5779 5774 5770 5766 5763 5762 5760 5757 5755 5751 5749 5747 5746 5744 5744 5743 5742 5742 5743 5742 5741 5741 5741 5740 5741 5741 5741 5740 5740 5739 5738 5735 5733 5731 5730 5729 5728 5727 5725 5724
5784 5782 5778 5776 5771 5766 5763 5761 5759 5757 5755 5752 5749 5747 5744 5743 5742 5741 5741 5739 5739 5739 5739 5738 5738 5737 5737 5737 5737 5737 5737 5737 5736 5734 5733 5731 5729 5727 5726 5725 5724 5723 5721
5781 5777 5775 5775 5768 5763 5760 5758 5757 5755 5752 5749 5747 5745 5742 5740 5740 5739 5738 5737 5736 5736 5735 5734 5733 5732 5732 5732 5733 5734 5734 5733 5732 5731 5730 5729 5727 5726 5724 5722 5721 5720 5719
5778 5774 5771 5769 5765 5761 5758 5755 5753 5751 5748 5746 5744 5742 5740 5738 5738 5737 5735 5734 5733 5732 5731 5730 5729 5728 5726 5727 5728 5729 5730 5729 5729 5729 5727 5726 5725 5723 5722 5720 5718 5717 5716
5774 5770 5766 5764 5761 5758 5755 5751 5749 5746 5744 5743 5742 5739 5737 5736 5735 5734 5733 5731 5730 5728 5726 5726 5724 5724 5724 5723 5725 5725 5726 5726 5726 5724 5724 5723 5722 5721 5719 5718 5716 5715 5714
5770 5766 5761 5758 5757 5753 5750 5746 5743 5740 5740 5739 5739 5737 5735 5734 5733 5732 5730 5728 5727 5724 5723 5722 5720 5719 5719 5720 5717 5716 5719 5721 5721 5720 5720 5719 5719 5718 5717 5715 5714 5713 5711
5765 5762 5758 5755 5753 5751 5748 5745 5743 5741 5739 5738 5736 5734 5733 5732 5730 5730 5727 5725 5723 5721 5719 5718 5717 5714 5715 5716 5712 5707 5704 5707 5711 5716 5715 5714 5715 5714 5713 5713 5712 5711 5709
5763 5759 5756 5752 5750 5748 5746 5743 5741 5738 5736 5733 5731 5730 5730 5729 5727 5726 5724 5723 5721 5719 5716 5715 5714 5712 5709 5711 5712 5706 5699 5696 5700 5706 5709 5710 5710 5709 5709 5709 5709 5708 5708
5762 5759 5754 5750 5747 5744 5743 5740 5736 5732 5729 5729 5729 5727 5726 5726 5724 5723 5721 5720 5718 5716 5714 5713 5712 5710 5708 5705 5707 5707 5705 5702 5695 5694 5699 5703 5704 5704 5704 5705 5705 5705 5705
5761 5756 5752 5747 5744 5742 5740 5738 5735 5732 5730 5729 5727 5724 5723 5722 5721 5720 5718 5716 5714 5713 5711 5710 5709 5708 5706 5704 5702 5702 5701 5700 5699 5691 5688 5692 5695 5698 5700 5701 5702 5702 5702
5758 5754 5750 5743 5740 5739 5737 5736 5733 5730 5728 5725 5723 5720 5719 5718 5717 5716 5714 5712 5711 5709 5708 5707 5705 5704 5703 5701 5700 5699 5697 5695 5693 5691 5687 5686 5687 5691 5696 5698 5699 5699 5698